This demonstration page uses our WeatherBlox Daily Observations layout. Learn more.

Left ArrowRight Arrow

30.21309, -93.2044

Hourly Observations for April 29, 2015

Temp ( °F °C ) Dew Point ( °F °C ) Humidity (%) Winds ( mph kmh ) Pressure ( in mb ) Visibility ( mi km ) Precip ( " mm )
12:15 am 00:15 Cloudy 58 14.5 53 11.6 83 83 NNW 13 20 29.97 1015 10 16 0.00 0.00
12:35 am 00:35 Cloudy 58 14.2 53 11.5 84 84 NNW 13 20 29.97 1015 10 16 0.00 0.00
12:55 am 00:55 Cloudy 57 14 52 11.2 83 83 NNW 12 19 29.97 1015 10 16 0.00 0.00
1:15 am 01:15 Cloudy 57 14 52 11.3 84 84 NNW 12 19 29.97 1015 10 16 0.00 0.00
1:35 am 01:35 Cloudy 57 13.7 52 11.3 86 86 NNW 12 19 29.97 1015 10 16 0.00 0.00
1:55 am 01:55 Cloudy 56 13.5 52 11.2 86 86 NNW 10 17 29.97 1015 10 16 0.00 0.00
2:15 am 02:15 Cloudy 56 13.5 52 11.1 86 86 NNW 10 17 29.94 1014 10 16 0.00 0.00
2:35 am 02:35 Cloudy 56 13.5 52 11 85 85 NNW 9 15 29.94 1014 10 16 0.00 0.00
2:55 am 02:55 Cloudy 56 13.3 52 11 86 86 NNW 7 11 29.94 1014 10 16 0.00 0.00
3:15 am 03:15 Cloudy 56 13.1 51 10.6 85 85 NNW 8 13 29.94 1014 10 16 0.00 0.00
3:35 am 03:35 Cloudy 55 13 51 10.6 85 85 NNW 9 15 29.94 1014 10 16 0.00 0.00
3:55 am 03:55 Cloudy 55 12.5 51 10.4 87 87 NNW 9 15 29.94 1014 10 16 0.00 0.00
4:15 am 04:15 Partly Cloudy 54 12.1 51 10.3 89 89 NNW 7 11 29.94 1014 10 16 0.00 0.00
4:35 am 04:35 Clear 53 11.9 51 10.4 91 91 NNW 7 11 29.94 1014 10 16 0.00 0.00
4:55 am 04:55 Clear 53 11.7 51 10.5 92 92 NNW 8 13 29.94 1014 10 16 0.00 0.00
5:15 am 05:15 Clear 53 11.6 51 10.3 92 92 NNW 12 19 29.94 1014 10 16 0.00 0.00
6:00 am 06:00 Mostly Clear 52 11 50 10 94 94 NW 8 13 29.97 1015 10 16 0.00 0.00
6:50 am 06:50 Mostly Sunny 52 11 48 9 88 88 WSW 10 17 29.97 1015 10 16 0.00 0.00
7:50 am 07:50 Mostly Sunny 54 12 48 9 82 82 NNW 8 13 30.00 1016 10 16 0.00 0.00
9:50 am 09:50 Mostly Sunny 61 16 48 9 63 63 NNW 10 17 30.00 1016 10 16 0.00 0.00
10:50 am 10:50 Mostly Sunny 64 18 46 8 52 52 N 12 19 29.97 1015 10 16 0.00 0.00
11:50 am 11:50 Mostly Sunny 66 19 46 8 49 49 N 12 19 29.97 1015 10 16 0.00 0.00
12:50 pm 12:50 Mostly Sunny 68 20 48 9 49 49 NNW 10 17 29.94 1014 10 16 0.00 0.00
1:50 pm 13:50 Mostly Sunny 72 22 48 9 44 44 NW 10 17 29.94 1014 10 16 0.00 0.00
9:50 pm 21:50 Mostly Clear 63 17 52 11 68 68 Calm 29.94 1014 10 16 0.00 0.00
10:15 pm 22:15 Clear 62 16.7 53 11.5 72 72 NW 3 6 29.94 1014 10 16 0.00 0.00
10:35 pm 22:35 Clear 62 16.5 53 11.4 72 72 NW 3 6 29.94 1014 10 16 0.00 0.00
10:55 pm 22:55 Clear 61 16.1 53 11.5 74 74 NW 3 6 29.97 1015 10 16 0.00 0.00
11:15 pm 23:15 Clear 61 16.1 52 11.2 73 73 NW 5 7 29.97 1015 10 16 0.00 0.00
11:35 pm 23:35 Clear 60 15.6 52 11.3 76 76 NW 5 7 29.97 1015 10 16 0.00 0.00
11:55 pm 23:55 Clear 60 15.8 52 11.1 74 74 WNW 3 6 29.97 1015 10 16 0.00 0.00

Powered by AerisWeather